Temperature
-3 -3 -3 -3 -4 -4 -4 -4 -4 -4 -4 -4 -4 -4 -4 -4 -4 -4 -4 -4 -4 -3 -3 -3 -3 -3 -3 -3 -3 -3 -3 -3 -3 -2 -2 -1 -1 -1 -1 -0 -0 -0 0
-3 -4 -4 -4 -4 -4 -5 -4 -5 -5 -5 -5 -5 -5 -4 -4 -4 -4 -4 -4 -4 -4 -4 -4 -4 -4 -4 -4 -4 -3 -3 -3 -3 -3 -3 -2 -2 -2 -1 -1 -1 -1 -0
-4 -4 -4 -4 -5 -5 -5 -5 -5 -5 -5 -5 -5 -5 -5 -5 -5 -5 -5 -5 -5 -5 -5 -5 -4 -4 -4 -4 -4 -4 -4 -4 -4 -4 -3 -3 -2 -2 -2 -2 -1 -1 -1
-4 -4 -5 -5 -5 -5 -5 -6 -6 -6 -6 -6 -6 -6 -5 -5 -5 -5 -5 -5 -6 -5 -5 -5 -5 -5 -5 -5 -5 -5 -4 -4 -4 -4 -4 -3 -3 -3 -3 -2 -2 -2 -1
-5 -5 -5 -5 -6 -6 -6 -6 -6 -6 -6 -6 -6 -6 -6 -6 -6 -6 -6 -6 -6 -6 -6 -6 -5 -5 -5 -5 -5 -5 -5 -5 -5 -4 -4 -4 -3 -3 -3 -2 -2 -2 -2
-5 -6 -6 -6 -6 -6 -6 -7 -7 -7 -7 -7 -7 -7 -6 -6 -6 -6 -6 -7 -7 -6 -6 -6 -6 -6 -6 -6 -5 -5 -5 -5 -5 -5 -4 -4 -4 -3 -3 -3 -3 -3 -3
-6 -6 -6 -6 -7 -7 -7 -7 -7 -7 -7 -7 -7 -7 -7 -7 -7 -7 -7 -7 -7 -7 -7 -7 -6 -6 -6 -6 -6 -6 -6 -5 -5 -5 -5 -4 -4 -3 -3 -3 -3 -3 -3
-7 -7 -7 -7 -7 -7 -7 -7 -8 -8 -8 -8 -8 -8 -8 -7 -7 -7 -7 -7 -7 -7 -7 -7 -7 -7 -6 -6 -6 -6 -6 -6 -5 -5 -5 -4 -4 -4 -4 -3 -3 -3 -3
-7 -7 -7 -8 -8 -8 -8 -8 -8 -8 -8 -8 -8 -8 -8 -8 -8 -7 -8 -8 -8 -8 -8 -7 -7 -7 -7 -7 -6 -6 -6 -6 -6 -5 -5 -5 -4 -4 -4 -4 -4 -4 -4
-8 -8 -8 -8 -8 -8 -8 -8 -8 -9 -9 -9 -9 -9 -9 -8 -8 -8 -8 -9 -9 -9 -8 -8 -8 -7 -7 -7 -7 -7 -6 -6 -6 -6 -5 -5 -5 -5 -4 -4 -4 -4 -4
-8 -8 -8 -9 -9 -9 -9 -9 -9 -9 -9 -9 -9 -9 -9 -9 -9 -9 -9 -9 -9 -9 -9 -8 -8 -8 -8 -7 -7 -7 -7 -6 -6 -6 -6 -5 -5 -5 -5 -5 -4 -4 -4
-9 -9 -9 -9 -9 -10 -10 -10 -10 -10 -10 -10 -10 -10 -9 -9 -9 -9 -10 -10 -10 -9 -9 -9 -8 -8 -8 -8 -7 -7 -7 -7 -7 -6 -6 -6 -6 -5 -5 -5 -5 -5 -5
-9 -9 -9 -10 -10 -10 -10 -10 -10 -10 -10 -11 -10 -10 -10 -10 -10 -10 -10 -10 -10 -10 -10 -9 -9 -9 -8 -8 -8 -8 -8 -7 -7 -7 -7 -6 -6 -6 -5 -5 -5 -5 -5
-10 -10 -10 -10 -10 -11 -11 -11 -11 -11 -11 -11 -11 -11 -11 -11 -11 -10 -10 -10 -10 -10 -10 -9 -9 -9 -9 -9 -8 -8 -8 -8 -8 -7 -7 -7 -6 -6 -6 -6 -6 -6 -5
-10 -10 -11 -11 -11 -11 -11 -12 -12 -12 -12 -12 -12 -12 -11 -11 -11 -11 -11 -10 -10 -10 -10 -10 -10 -10 -10 -10 -9 -9 -9 -8 -8 -8 -8 -7 -7 -7 -6 -6 -6 -6 -6
-11 -11 -11 -12 -12 -12 -12 -12 -12 -12 -12 -12 -12 -12 -12 -11 -11 -11 -11 -11 -11 -11 -11 -11 -11 -11 -10 -10 -10 -10 -9 -9 -9 -9 -8 -8 -8 -7 -7 -7 -7 -7 -7
-11 -12 -12 -12 -12 -13 -13 -13 -13 -12 -12 -12 -12 -12 -12 -12 -12 -11 -11 -11 -11 -11 -11 -11 -11 -11 -11 -11 -11 -10 -10 -10 -9 -9 -9 -9 -8 -8 -8 -8 -7 -7 -7
-12 -12 -13 -13 -13 -13 -13 -13 -13 -13 -13 -13 -13 -12 -12 -12 -12 -12 -12 -12 -12 -12 -12 -12 -12 -12 -11 -11 -11 -11 -10 -10 -10 -10 -9 -9 -9 -8 -8 -8 -8 -8 -8
-12 -13 -13 -13 -13 -13 -13 -14 -14 -14 -13 -13 -13 -13 -13 -13 -12 -12 -12 -12 -12 -12 -12 -12 -12 -12 -12 -12 -11 -11 -11 -11 -10 -10 -10 -10 -9 -9 -9 -8 -8 -8 -8
-13 -13 -13 -13 -14 -14 -14 -14 -14 -14 -14 -14 -14 -14 -14 -13 -13 -13 -13 -13 -13 -13 -13 -12 -12 -12 -12 -12 -12 -12 -11 -11 -11 -10 -10 -10 -10 -9 -9 -9 -9 -8 -8
-13 -13 -14 -14 -14 -14 -14 -14 -14 -14 -14 -14 -14 -14 -14 -14 -14 -14 -13 -13 -13 -13 -13 -13 -13 -12 -12 -12 -12 -12 -12 -11 -11 -11 -11 -10 -10 -10 -9 -9 -9 -9 -8
-14 -14 -14 -14 -14 -15 -15 -15 -15 -15 -15 -15 -14 -14 -14 -14 -14 -14 -14 -14 -13 -13 -13 -13 -13 -12 -12 -12 -12 -12 -12 -12 -11 -11 -11 -11 -10 -10 -10 -9 -9 -9 -9
-14 -14 -14 -14 -15 -15 -15 -15 -15 -15 -15 -15 -15 -15 -15 -15 -15 -14 -14 -14 -14 -13 -13 -13 -13 -13 -12 -13 -12 -12 -12 -12 -11 -11 -11 -11 -10 -10 -10 -9 -9 -9 -9
-14 -15 -15 -15 -15 -15 -15 -15 -15 -15 -15 -15 -15 -15 -15 -15 -15 -15 -14 -14 -14 -14 -13 -13 -13 -13 -13 -13 -12 -12 -12 -12 -12 -11 -11 -11 -10 -10 -10 -10 -10 -9 -9
-15 -15 -15 -15 -15 -15 -15 -15 -15 -16 -16 -16 -16 -15 -15 -15 -15 -15 -15 -14 -14 -14 -14 -14 -13 -13 -13 -13 -12 -12 -12 -12 -11 -11 -11 -11 -10 -10 -10 -10 -10 -10 -9
-15 -15 -15 -15 -16 -16 -16 -16 -16 -16 -16 -16 -16 -16 -15 -15 -15 -15 -15 -15 -14 -14 -14 -14 -13 -13 -13 -13 -13 -12 -12 -12 -11 -11 -11 -11 -11 -10 -10 -10 -10 -10 -10
Wind_Speed
3 4 4 5 5 5 5 6 7 7 8 8 8 8 8 8 9 8 8 8 9 9 9 10 10 10 9 8 8 9 9 9 12 11 10 9 11 11 11 12 12 12 12
4 4 5 5 5 6 6 7 7 8 8 8 8 8 8 8 9 9 9 9 9 10 11 11 11 9 11 10 9 10 10 10 11 13 11 10 11 11 11 12 11 11 11
4 5 5 5 6 6 7 7 8 8 8 9 9 9 9 9 9 9 9 9 10 11 11 11 11 11 11 10 10 11 10 10 10 11 11 10 10 9 11 11 11 9 10
4 5 6 6 6 7 7 7 8 8 9 9 9 9 10 10 10 10 10 10 11 11 11 11 11 11 12 12 10 11 10 11 11 11 11 10 9 9 9 9 9 8 8
5 6 6 6 7 7 7 8 8 8 9 9 9 10 10 9 9 10 10 11 11 12 12 11 12 13 14 13 11 11 11 10 10 11 11 10 9 8 9 8 9 8 9
5 6 6 6 7 7 8 8 8 9 9 9 10 10 10 9 12 14 13 11 11 12 12 12 12 13 14 16 17 17 16 14 12 12 11 12 13 11 10 9 9 9 9
6 6 6 7 7 8 8 8 8 9 9 10 10 10 11 11 14 15 15 12 12 12 12 12 10 10 13 12 14 16 16 18 18 15 14 14 13 12 11 11 11 10 10
6 6 7 7 8 8 8 9 9 9 9 9 10 11 11 11 14 15 16 13 12 12 12 12 12 12 12 13 13 13 14 14 15 13 13 14 13 12 13 12 11 11 10
6 7 7 7 8 9 9 9 9 9 9 9 10 11 11 12 14 14 15 10 10 12 12 12 12 12 14 15 13 13 14 13 14 17 18 18 18 18 15 10 9 9 9
7 7 8 8 8 9 9 9 9 9 9 9 10 10 11 11 13 14 14 9 10 10 10 11 13 14 15 15 12 12 13 13 12 12 13 15 15 15 16 12 10 10 8
7 8 8 8 8 9 9 8 9 9 9 9 10 10 10 11 12 13 14 9 9 10 9 9 10 14 15 16 14 12 14 13 11 11 10 10 10 10 10 10 10 10 10
7 8 8 8 8 7 8 8 8 8 9 9 9 9 8 9 10 11 14 13 12 10 10 10 10 14 16 16 13 13 16 14 9 9 9 9 9 9 8 9 10 10 11
7 8 8 8 8 8 8 8 8 7 7 7 8 8 8 8 9 12 14 14 15 11 10 13 14 15 14 12 14 15 13 9 8 8 9 9 8 8 7 7 7 8 9
8 8 8 8 8 7 7 7 7 7 7 7 8 8 8 8 8 8 8 9 11 11 10 11 13 13 11 11 11 9 8 8 8 8 8 8 7 6 6 6 6 5 5
8 7 8 7 7 7 7 7 8 8 8 9 8 9 9 9 10 13 11 9 8 9 9 7 7 7 6 6 7 6 6 6 7 7 7 7 7 6 6 6 5 5 6
7 7 6 6 6 7 7 7 9 10 13 13 13 13 11 13 15 16 15 14 14 12 9 7 7 6 6 6 6 6 6 6 7 7 7 6 7 6 6 5 5 6 6
7 7 6 6 7 7 7 7 8 9 11 12 13 13 13 15 15 15 14 13 12 10 7 6 7 7 6 6 7 7 7 7 7 7 6 6 6 6 6 5 5 6 6
7 7 7 6 7 7 7 7 7 8 9 8 10 12 14 15 15 14 12 10 7 6 6 6 7 7 7 7 7 7 7 7 7 7 6 6 6 6 6 6 6 6 6
7 6 6 7 7 7 7 7 7 8 8 8 8 9 12 13 13 12 9 6 6 6 6 6 7 7 7 7 7 7 8 7 7 7 7 7 6 6 6 6 6 7 7
6 9 8 7 7 7 7 7 7 7 8 8 8 8 9 9 8 7 6 6 6 7 7 7 7 7 7 8 8 7 8 7 8 7 7 7 6 6 6 7 6 6 6
6 7 9 8 7 7 7 7 7 7 7 8 8 9 12 9 8 8 7 7 7 7 7 7 7 7 7 7 7 8 8 8 7 7 7 7 6 6 6 6 6 6 6
6 6 6 7 7 7 7 7 7 7 8 8 8 9 12 8 7 7 7 7 7 7 7 7 7 7 7 7 8 8 8 8 8 7 7 7 6 6 6 6 6 6 5
6 7 7 7 7 8 8 7 7 7 8 8 8 8 8 7 7 7 8 8 8 8 8 8 8 8 8 8 8 8 8 9 8 8 8 7 7 6 6 6 7 6 5
6 7 7 7 7 7 7 7 7 7 8 8 8 8 8 8 8 8 8 8 8 8 8 8 9 10 12 11 10 9 10 10 10 9 9 8 8 7 6 6 6 6 5
6 6 7 7 7 7 7 7 7 7 8 8 8 8 8 8 8 9 8 8 9 9 10 10 9 10 12 12 12 12 13 15 14 10 9 7 8 7 6 6 5 4 4
6 6 6 6 6 6 7 7 7 8 8 8 8 8 8 8 9 9 9 8 8 9 10 10 11 12 14 13 13 14 15 15 15 14 9 6 6 5 5 4 4 4 3
Wind_Direction
265 271 277 282 285 285 285 288 294 296 297 296 298 298 297 296 294 285 281 284 278 276 275 274 269 266 263 261 261 257 257 259 265 272 270 271 269 272 276 268 266 263 260
266 271 277 282 283 282 285 288 292 293 293 293 291 290 289 289 290 286 280 280 280 278 275 273 270 267 264 261 259 257 258 260 263 271 273 271 268 266 270 267 264 260 260
267 271 276 280 281 283 287 291 293 292 291 291 289 288 288 289 289 286 282 281 281 280 278 274 273 267 264 263 261 259 259 261 262 265 270 270 268 264 269 266 262 259 260
268 271 274 279 282 285 289 290 290 290 290 290 288 288 287 287 286 286 282 281 281 280 278 276 275 270 267 266 263 261 261 261 261 262 266 267 266 265 264 262 260 258 262
269 272 276 282 285 286 288 289 289 288 288 289 288 287 286 285 284 287 287 284 283 282 279 276 274 273 272 267 264 263 263 261 261 263 264 267 266 264 261 261 259 261 264
272 276 282 285 286 286 288 289 288 288 289 288 286 285 285 283 286 288 289 288 286 283 282 281 279 274 272 269 266 265 263 261 261 264 264 262 264 264 263 261 259 259 267
277 281 286 288 288 289 290 288 287 288 289 287 286 285 284 285 289 289 290 288 284 281 281 281 279 277 276 272 269 267 265 263 260 261 263 263 265 268 266 261 257 260 264
281 284 288 290 291 292 290 288 289 289 288 287 286 285 286 287 290 291 292 287 281 280 279 280 279 278 274 273 270 268 265 263 261 258 261 266 265 264 262 259 263 268 269
288 291 294 292 291 292 292 292 293 291 289 288 287 286 286 290 292 293 292 287 282 281 282 280 277 277 277 277 273 268 269 268 267 264 266 268 269 267 264 260 254 253 260
296 297 296 293 291 291 291 293 294 292 289 290 288 287 286 289 292 293 292 286 284 284 284 281 275 274 278 277 274 271 269 270 271 271 268 268 268 266 258 247 244 245 254
301 299 296 293 291 289 290 291 292 292 291 289 288 288 287 288 290 290 291 287 286 286 286 284 279 278 279 281 280 276 274 277 274 271 269 268 267 263 255 245 242 240 244
304 300 298 296 294 291 290 291 291 291 291 290 290 292 291 293 292 290 291 290 291 286 285 286 286 284 284 284 281 278 281 281 273 268 266 266 267 265 260 254 252 250 247
304 301 300 299 295 293 291 292 292 290 289 291 292 291 295 297 297 294 292 293 291 288 285 288 292 293 290 284 280 281 282 275 269 267 266 268 269 267 267 261 260 258 258
301 301 300 299 299 298 294 290 290 290 290 291 293 295 296 296 297 300 293 292 292 290 289 291 292 291 287 286 287 282 274 272 271 269 270 275 274 268 264 259 257 255 262
300 300 300 298 298 298 294 290 289 284 285 291 293 294 297 297 300 305 305 300 298 295 298 295 294 292 289 285 284 283 282 283 281 277 273 273 273 265 267 266 261 259 255
300 301 301 300 299 297 298 297 292 290 295 296 296 298 297 298 303 305 306 305 306 308 303 293 291 291 290 290 291 291 288 286 286 285 279 273 274 269 269 271 261 258 258
295 298 299 299 298 298 298 300 303 304 301 302 304 306 308 308 308 308 307 306 306 307 296 289 289 290 289 289 290 289 287 288 286 284 282 279 278 275 271 269 266 265 263
296 297 298 297 297 296 296 296 297 302 306 307 308 310 313 314 313 312 310 310 301 297 292 290 289 290 290 288 288 288 289 288 285 284 284 282 279 276 272 266 264 269 271
299 299 299 299 297 296 296 295 296 297 298 302 308 310 315 315 313 314 316 306 300 297 294 291 290 291 291 290 287 287 287 286 286 286 285 284 278 276 274 273 270 270 271
296 300 304 301 299 301 301 298 297 298 300 302 305 310 316 314 311 312 311 304 299 297 297 295 293 291 290 291 289 286 285 285 286 282 283 283 278 272 272 275 273 271 271
298 300 304 302 300 301 301 302 302 303 304 303 303 307 314 311 309 307 305 302 299 297 297 295 293 291 290 290 289 288 287 285 283 283 282 280 278 275 272 273 274 271 270
296 299 301 301 302 303 304 303 304 304 304 305 307 310 314 313 308 307 306 305 302 298 297 295 292 288 286 286 285 286 285 283 282 281 279 277 276 275 273 270 271 270 263
297 301 303 304 303 305 307 306 305 305 306 308 309 310 312 312 310 309 308 308 308 305 301 296 293 291 288 286 283 280 279 279 278 277 277 278 277 276 273 271 271 269 260
300 302 303 303 304 305 306 307 308 308 308 308 310 310 311 311 309 309 308 307 307 305 305 301 295 292 291 291 288 284 280 279 281 276 271 268 269 269 268 267 266 262 253
303 303 304 304 304 305 306 307 308 309 309 309 309 309 310 309 309 309 309 307 306 304 304 304 301 300 297 294 292 289 287 287 287 284 274 264 261 262 263 264 261 263 256
304 304 304 304 304 305 305 306 307 309 308 307 307 306 306 306 306 306 307 307 306 306 305 304 304 305 305 302 296 294 294 293 292 289 281 267 261 259 262 258 258 254 249
Height
1516 1515 1514 1513 1511 1509 1507 1505 1503 1501 1499 1497 1496 1494 1492 1490 1488 1487 1486 1484 1483 1482 1481 1481 1480 1479 1479 1479 1479 1478 1478 1477 1474 1471 1471 1471 1470 1470 1469 1469 1468 1467 1466
1513 1512 1510 1509 1507 1505 1503 1501 1499 1497 1495 1493 1491 1489 1487 1486 1484 1482 1480 1479 1478 1477 1475 1474 1473 1473 1473 1472 1472 1471 1471 1471 1469 1466 1464 1465 1464 1464 1463 1462 1461 1461 1460
1509 1508 1506 1505 1503 1501 1499 1497 1495 1492 1490 1489 1486 1484 1482 1481 1479 1477 1475 1473 1472 1471 1469 1468 1467 1467 1466 1466 1465 1465 1464 1464 1463 1461 1458 1458 1458 1457 1457 1456 1455 1454 1454
1505 1503 1502 1500 1498 1496 1494 1492 1490 1488 1486 1483 1481 1479 1477 1475 1474 1472 1469 1467 1466 1464 1463 1461 1460 1460 1459 1458 1458 1458 1458 1458 1457 1456 1453 1452 1451 1451 1451 1449 1448 1448 1447
1501 1499 1498 1496 1494 1492 1490 1488 1485 1483 1481 1478 1476 1474 1472 1470 1468 1466 1464 1461 1460 1458 1456 1455 1453 1452 1452 1451 1451 1451 1451 1451 1450 1449 1448 1446 1445 1445 1444 1443 1442 1441 1441
1497 1495 1494 1492 1489 1487 1485 1482 1480 1478 1476 1473 1470 1468 1466 1464 1462 1460 1458 1455 1453 1451 1450 1448 1446 1445 1444 1444 1443 1444 1444 1444 1443 1443 1441 1440 1438 1439 1438 1437 1436 1436 1434
1493 1491 1489 1487 1485 1482 1480 1478 1475 1473 1470 1468 1465 1463 1460 1458 1456 1454 1452 1450 1448 1445 1443 1441 1439 1437 1437 1436 1436 1436 1436 1436 1437 1436 1434 1433 1432 1432 1432 1431 1430 1429 1428
1488 1486 1485 1482 1480 1478 1475 1473 1470 1468 1465 1463 1460 1457 1455 1452 1450 1448 1446 1444 1441 1439 1437 1435 1432 1431 1430 1430 1429 1428 1428 1428 1429 1428 1427 1426 1426 1425 1425 1424 1423 1423 1422
1484 1482 1480 1478 1475 1473 1470 1468 1465 1463 1460 1457 1455 1452 1449 1446 1444 1442 1440 1437 1435 1432 1430 1428 1427 1425 1424 1424 1423 1422 1421 1421 1421 1421 1420 1418 1417 1418 1417 1417 1416 1416 1414
1480 1478 1475 1473 1470 1468 1465 1463 1460 1457 1454 1452 1449 1446 1443 1441 1438 1436 1435 1432 1429 1427 1424 1422 1421 1419 1418 1418 1417 1416 1414 1413 1413 1412 1411 1410 1409 1409 1409 1409 1409 1408 1407
1476 1474 1471 1468 1466 1463 1460 1458 1455 1452 1449 1447 1444 1441 1438 1435 1433 1431 1429 1427 1424 1421 1419 1417 1415 1414 1413 1412 1411 1410 1408 1407 1406 1405 1404 1402 1401 1401 1400 1400 1401 1401 1400
1472 1469 1466 1464 1461 1458 1455 1453 1450 1447 1444 1441 1438 1435 1433 1430 1428 1426 1424 1422 1419 1417 1414 1412 1410 1408 1407 1405 1404 1403 1402 1402 1400 1398 1397 1395 1394 1393 1393 1392 1393 1393 1393
1467 1465 1462 1459 1456 1453 1450 1448 1445 1442 1440 1437 1434 1431 1428 1426 1423 1421 1419 1416 1414 1412 1409 1407 1404 1402 1401 1399 1397 1397 1396 1395 1393 1392 1390 1389 1388 1387 1386 1385 1385 1385 1385
1463 1460 1457 1454 1451 1448 1446 1443 1440 1438 1435 1432 1429 1426 1423 1421 1418 1416 1414 1411 1409 1407 1404 1401 1399 1397 1395 1393 1391 1390 1390 1389 1387 1385 1384 1383 1381 1380 1379 1379 1379 1379 1378
1459 1456 1453 1450 1447 1444 1441 1438 1435 1433 1431 1428 1426 1423 1420 1416 1414 1412 1410 1407 1404 1402 1399 1396 1393 1391 1389 1388 1386 1384 1383 1382 1381 1380 1378 1377 1375 1374 1374 1374 1373 1373 1373
1455 1452 1449 1445 1442 1439 1436 1433 1431 1429 1426 1423 1421 1419 1415 1413 1410 1407 1404 1402 1399 1397 1394 1391 1389 1387 1385 1383 1381 1379 1378 1377 1375 1374 1373 1372 1370 1369 1368 1368 1368 1368 1367
1451 1448 1445 1441 1438 1435 1432 1429 1425 1423 1421 1418 1416 1413 1410 1407 1404 1402 1399 1397 1394 1392 1390 1387 1385 1382 1380 1379 1377 1375 1373 1372 1370 1369 1368 1366 1365 1364 1363 1363 1363 1362 1362
1447 1444 1441 1438 1435 1431 1428 1425 1422 1418 1415 1412 1411 1408 1405 1402 1399 1396 1394 1392 1389 1387 1385 1383 1380 1379 1376 1374 1373 1371 1369 1367 1366 1364 1363 1362 1360 1359 1358 1358 1358 1358 1357
1444 1440 1437 1434 1431 1428 1425 1422 1418 1415 1412 1409 1406 1403 1401 1398 1395 1392 1390 1388 1385 1383 1381 1379 1377 1375 1373 1371 1368 1367 1365 1363 1361 1360 1358 1357 1356 1355 1354 1353 1353 1353 1353
1440 1437 1434 1431 1427 1424 1421 1418 1415 1412 1408 1405 1402 1399 1396 1393 1390 1388 1386 1384 1382 1380 1378 1375 1373 1371 1369 1367 1365 1362 1360 1358 1357 1355 1354 1353 1352 1351 1350 1349 1348 1348 1348
1437 1433 1430 1427 1424 1421 1418 1415 1412 1409 1405 1402 1399 1397 1394 1390 1387 1385 1383 1380 1378 1376 1373 1371 1369 1366 1364 1362 1360 1358 1356 1354 1353 1351 1350 1348 1347 1346 1345 1345 1344 1344 1343
1433 1430 1427 1424 1421 1418 1415 1411 1409 1405 1402 1399 1395 1393 1390 1387 1384 1381 1379 1377 1374 1372 1369 1367 1364 1362 1360 1358 1356 1353 1351 1349 1348 1346 1345 1344 1342 1342 1341 1340 1339 1339 1339
1430 1427 1424 1421 1418 1414 1411 1408 1405 1402 1398 1395 1392 1389 1386 1384 1381 1378 1376 1373 1370 1368 1365 1363 1360 1357 1355 1353 1351 1349 1346 1345 1343 1342 1340 1339 1338 1337 1336 1335 1335 1335 1335
1427 1424 1421 1418 1414 1411 1408 1405 1402 1399 1396 1393 1390 1387 1384 1381 1378 1375 1372 1369 1367 1364 1361 1358 1356 1353 1351 1348 1346 1343 1342 1341 1339 1338 1336 1335 1334 1333 1332 1331 1331 1331 1331
1424 1421 1418 1415 1411 1408 1405 1402 1399 1396 1393 1390 1387 1384 1381 1378 1375 1372 1369 1366 1363 1360 1358 1355 1352 1349 1346 1343 1341 1339 1337 1335 1334 1333 1332 1330 1330 1329 1328 1328 1328 1327 1327
1421 1418 1415 1412 1409 1406 1403 1399 1397 1394 1391 1388 1385 1382 1378 1375 1372 1369 1366 1363 1360 1357 1354 1351 1348 1344 1341 1338 1336 1334 1332 1331 1330 1329 1328 1326 1326 1325 1325 1324 1324 1324 1324